Wind_Speed
34 34 35 35 34 35 37 37 38 37 37 35 35 35 35 35 35 36 36 37 38 38 39 39 40 41 41 42 44 44 45 46 47 47 47 47 47 48 48 48 48 48 47 48
34 34 35 35 34 35 36 36 36 36 35 34 36 37 36 35 35 36 36 36 37 38 38 38 38 39 40 41 42 43 43 44 45 45 45 46 46 46 46 46 47 47 47 47
35 35 36 34 33 34 35 34 35 36 35 34 35 36 36 35 35 35 35 36 37 37 38 38 38 38 38 39 41 41 42 42 43 44 44 44 44 45 45 45 46 45 45 45
37 37 37 34 33 34 35 34 35 35 35 35 35 34 34 34 34 33 34 34 35 36 36 36 37 38 38 39 39 40 41 41 42 43 43 43 44 44 44 45 45 45 44 44
36 37 37 34 33 33 34 34 34 34 34 34 34 33 32 33 33 33 33 33 34 33 34 34 35 36 37 37 37 38 40 40 41 41 42 42 43 43 44 44 44 44 43 43
35 35 36 33 33 33 34 33 33 33 33 33 33 33 31 32 32 32 32 33 34 34 34 34 35 35 35 35 35 36 37 38 38 39 40 41 41 42 43 43 43 43 44 43
34 35 33 32 32 32 32 32 32 32 32 32 31 31 31 31 31 32 33 33 34 34 35 35 35 35 35 35 35 35 36 36 37 38 38 39 40 41 42 42 42 43 43 43
34 34 32 31 31 31 31 31 31 32 32 32 32 32 32 32 32 32 32 32 33 33 34 34 34 35 35 35 35 35 35 36 36 36 37 38 38 39 40 41 42 42 42 43
32 32 31 30 31 31 31 32 32 32 32 32 32 33 33 32 32 31 31 31 32 32 33 33 33 34 34 35 35 35 35 35 35 35 36 36 37 37 38 39 39 39 40 40
32 31 30 30 30 31 31 31 31 32 32 31 31 31 31 32 32 31 31 31 31 31 32 32 32 32 33 34 34 35 35 34 35 35 35 35 35 35 36 36 37 37 37 38
32 31 30 29 30 31 31 31 31 31 32 32 32 31 31 31 31 30 30 30 30 30 30 31 32 32 32 32 32 32 33 33 33 33 33 33 33 34 35 35 35 35 35 35
31 30 31 30 30 31 31 30 30 30 31 31 32 32 31 31 30 30 30 30 30 29 30 30 31 31 31 31 30 30 30 30 30 31 32 32 32 32 32 33 33 33 32 32
30 30 30 30 30 30 31 31 30 30 30 30 31 31 31 31 31 31 30 30 30 30 30 30 30 30 30 30 29 28 28 28 29 30 30 29 30 30 30 31 31 30 31 31
29 29 29 29 29 29 30 30 30 30 30 30 31 31 32 31 30 30 30 30 30 30 30 30 29 29 28 28 28 27 27 27 27 28 28 28 28 29 29 29 29 29 30 30
28 29 29 29 29 29 29 30 30 30 30 30 30 30 30 30 30 31 31 31 30 30 30 29 28 27 26 26 26 26 27 27 28 28 28 28 28 28 28 28 28 29 28 29
28 28 29 28 28 29 29 30 30 30 30 30 29 29 30 29 29 30 30 30 29 29 28 28 27 27 26 26 27 27 27 27 27 28 28 28 28 28 29 29 29 28 28 28
28 28 28 28 28 29 29 30 30 30 29 29 29 29 29 28 28 28 28 28 28 28 28 27 27 27 27 27 27 27 27 27 27 27 27 28 28 28 28 28 28 27 27 27
29 29 29 29 30 30 29 29 29 29 28 28 28 28 28 27 27 27 27 28 28 28 27 27 26 26 26 27 27 27 27 27 27 27 27 27 28 28 27 26 26 26 26 26
28 29 29 29 29 29 29 29 28 28 28 28 27 27 26 26 26 26 27 27 27 27 26 26 26 26 26 26 27 27 28 27 27 28 28 28 27 27 26 25 25 25 25 25
27 27 27 28 27 27 27 27 27 26 26 26 25 25 25 25 25 26 26 26 26 27 27 27 26 26 26 26 27 27 27 27 27 27 27 27 27 27 26 25 25 25 25 25
26 26 26 27 26 26 26 26 25 24 24 24 24 24 24 24 24 25 25 25 25 26 26 26 26 26 27 27 27 27 27 27 26 26 26 26 27 27 27 26 26 26 26 25
25 25 25 25 25 24 24 24 23 23 23 23 23 23 23 23 23 23 23 23 24 24 24 24 25 25 26 26 26 26 26 25 25 26 26 27 27 27 27 27 26 26 26 25
24 24 24 24 23 22 22 22 22 22 22 22 23 23 23 22 22 22 22 22 22 22 23 23 24 24 24 24 24 24 25 25 25 26 26 26 26 26 25 25 25 25 25 25
23 23 23 23 22 22 21 21 22 22 22 22 22 23 22 22 22 22 22 22 22 22 23 24 24 24 24 24 24 24 24 24 25 25 24 24 24 24 23 23 23 23 24 24
22 22 21 21 21 21 21 21 21 21 22 22 22 22 22 22 22 22 22 22 23 23 23 24 24 24 24 24 24 24 24 23 23 23 23 23 23 23 23 23 23 23 23 23
21 21 21 20 20 20 20 20 21 21 21 21 21 22 22 22 22 22 22 22 22 22 23 23 23 24 24 24 24 23 23 23 22 22 22 22 22 21 21 21 21 21 21 20
21 20 20 20 20 20 20 20 20 20 20 20 20 21 21 22 22 22 22 22 22 22 23 23 23 23 22 22 21 21 21 21 21 21 20 20 20 19 19 18 18 18 18 18
Wind_Direction
271 272 272 272 272 273 274 276 278 279 280 280 279 280 279 279 278 276 273 270 269 267 266 266 265 264 263 262 263 263 262 262 261 262 262 262 263 264 265 267 268 269 270 270
270 272 272 272 272 274 276 277 278 279 280 279 279 280 281 280 279 277 274 273 272 270 268 267 267 265 264 263 264 264 262 262 261 261 262 263 264 265 266 268 269 269 270 269
271 272 272 273 273 274 275 277 279 280 281 280 278 279 280 281 279 278 275 275 273 271 270 268 267 266 265 266 265 265 264 262 262 262 263 264 265 265 266 267 268 269 269 269
273 273 273 275 275 275 274 275 277 279 279 280 280 280 281 280 279 276 275 275 274 273 272 271 269 267 266 268 267 267 266 265 264 264 264 264 264 265 266 267 268 268 268 269
274 273 274 275 277 277 276 275 276 278 279 280 281 279 279 279 278 276 275 275 275 274 273 272 271 270 269 270 270 269 267 265 264 265 265 265 265 266 266 267 268 268 268 268
273 274 277 277 278 278 278 277 276 277 279 281 281 280 278 278 278 277 275 274 273 273 273 273 274 273 272 272 272 272 269 267 266 266 266 267 267 267 267 267 267 267 267 268
272 274 277 278 278 279 278 279 278 278 278 279 281 281 280 279 277 275 274 274 273 273 274 274 274 274 274 274 273 273 271 269 269 268 268 268 268 268 267 267 267 268 267 267
273 275 278 278 278 276 277 278 278 278 279 280 281 280 280 280 279 277 276 274 274 274 275 276 275 275 274 274 274 274 273 271 270 270 270 270 270 268 268 269 269 268 268 268
275 277 278 277 276 275 275 276 277 278 279 280 280 281 281 280 280 279 276 275 275 276 276 277 277 276 274 274 274 274 273 272 272 272 272 272 271 270 271 271 270 269 270 269
274 275 276 277 276 275 276 276 277 277 278 279 280 282 281 280 280 278 276 275 276 276 277 278 277 276 275 275 274 275 274 272 271 271 272 272 273 272 272 273 272 271 271 270
275 276 276 276 276 276 276 277 277 277 278 279 280 281 281 281 280 278 276 276 277 277 277 279 280 279 277 277 277 276 274 272 272 271 271 273 273 273 273 273 272 272 272 272
277 277 276 276 275 276 275 275 276 278 279 279 279 279 280 280 279 278 277 276 276 277 278 280 281 281 279 278 278 277 275 274 274 274 275 274 273 274 274 273 273 273 273 274
276 275 274 275 275 277 275 275 276 279 280 280 278 278 279 279 278 278 277 276 277 278 278 280 281 281 280 279 278 277 275 276 276 276 276 276 275 275 276 276 276 276 275 276
276 275 274 275 276 277 277 277 278 279 280 280 280 278 278 278 277 276 276 276 277 278 279 280 281 279 278 277 277 275 276 277 278 276 276 277 276 276 277 276 276 277 276 275
276 277 278 278 278 278 278 279 279 281 280 280 282 281 279 277 276 275 276 276 277 277 278 278 279 278 277 276 275 275 276 276 277 278 277 278 279 280 278 277 276 275 275 274
275 276 278 279 279 279 279 278 278 280 282 281 281 282 281 278 277 276 276 276 276 276 276 277 277 276 275 275 275 276 275 276 277 278 278 278 281 282 280 278 276 275 273 272
275 277 278 279 280 280 279 279 278 279 280 280 282 283 281 278 276 276 276 276 276 275 275 276 276 276 274 274 274 275 275 275 277 278 278 279 280 281 281 279 276 274 272 271
277 278 278 280 282 282 281 279 277 277 279 281 282 282 281 278 276 276 276 276 275 275 275 274 275 275 275 275 274 275 276 277 278 278 278 279 281 282 281 278 276 274 273 273
278 279 279 280 282 283 282 280 278 279 280 281 281 280 279 278 277 277 278 276 274 273 272 271 271 272 274 274 275 276 277 277 278 278 278 279 281 281 280 278 276 274 274 274
280 281 281 282 283 283 282 281 279 279 280 282 282 282 280 278 277 278 278 276 273 271 271 271 271 272 274 275 276 277 277 278 279 279 279 279 280 280 279 277 274 273 273 273
281 282 283 283 283 282 282 281 280 281 281 282 283 284 282 279 279 280 279 277 274 273 272 272 273 274 275 276 277 278 278 279 280 280 280 280 281 280 278 277 274 273 273 272
282 283 284 285 284 282 281 281 282 283 283 283 283 284 283 281 281 281 281 279 276 274 273 274 275 276 276 277 277 278 279 280 281 281 280 281 281 279 278 276 273 273 272 271
282 283 283 284 284 282 281 282 283 284 284 283 284 284 283 282 282 281 280 280 279 276 275 275 275 275 275 276 276 278 280 281 281 282 281 281 280 279 277 274 272 271 271 271
281 282 282 282 282 282 282 283 284 284 285 285 284 284 284 282 282 282 280 278 279 277 276 275 275 275 276 277 278 279 281 282 283 283 281 280 280 278 275 273 272 271 271 271
280 280 280 280 281 282 282 283 284 284 285 286 286 285 285 283 282 282 280 279 278 277 276 276 275 274 275 276 277 278 280 282 282 282 280 279 279 278 276 275 274 273 273 273
281 279 279 279 280 281 282 284 285 286 287 287 287 286 287 286 284 283 281 280 279 278 277 276 276 275 275 275 276 277 278 279 280 280 279 279 278 278 277 276 275 275 274 274
281 280 278 278 279 280 282 284 285 286 286 287 288 288 289 289 287 284 283 282 280 280 279 277 276 276 275 274 275 276 278 279 280 280 280 279 278 276 275 275 276 276 274 274
Height
5604 5604 5603 5603 5603 5602 5601 5600 5599 5600 5599 5600 5597 5595 5594 5593 5592 5591 5590 5590 5589 5589 5589 5589 5590 5590 5590 5591 5591 5592 5592 5593 5595 5596 5597 5598 5600 5601 5602 5603 5603 5604 5605 5605
5595 5594 5593 5593 5593 5592 5591 5591 5590 5589 5590 5590 5588 5586 5585 5583 5582 5581 5580 5579 5579 5578 5578 5578 5578 5578 5578 5579 5579 5579 5580 5581 5582 5583 5585 5586 5587 5588 5589 5590 5591 5591 5592 5592
5584 5584 5583 5584 5585 5584 5583 5582 5581 5579 5581 5580 5578 5576 5575 5573 5572 5571 5570 5569 5568 5568 5567 5567 5567 5567 5567 5567 5566 5567 5567 5568 5569 5571 5572 5573 5574 5575 5576 5577 5578 5579 5579 5580
5573 5574 5573 5579 5576 5574 5573 5573 5572 5570 5570 5570 5568 5567 5565 5564 5562 5561 5559 5559 5558 5557 5557 5556 5556 5555 5555 5555 5555 5555 5556 5556 5557 5558 5559 5561 5562 5563 5564 5565 5566 5567 5567 5568
5564 5562 5563 5567 5566 5564 5562 5563 5563 5561 5560 5559 5558 5557 5556 5554 5552 5551 5550 5549 5548 5547 5546 5546 5545 5545 5545 5545 5544 5544 5544 5544 5545 5546 5548 5549 5550 5551 5552 5553 5554 5554 5555 5556
5554 5553 5553 5558 5557 5554 5553 5553 5554 5551 5550 5549 5548 5547 5548 5545 5543 5542 5541 5540 5539 5538 5537 5537 5536 5535 5535 5534 5534 5533 5533 5534 5534 5535 5536 5537 5538 5539 5540 5541 5541 5542 5543 5543
5546 5543 5545 5548 5546 5545 5545 5545 5544 5542 5541 5540 5539 5538 5537 5536 5534 5533 5532 5531 5530 5529 5528 5527 5526 5526 5525 5524 5524 5523 5523 5523 5524 5524 5525 5526 5526 5527 5528 5528 5529 5530 5531 5531
5537 5536 5540 5538 5537 5537 5536 5535 5534 5533 5532 5531 5530 5529 5528 5527 5525 5524 5523 5522 5521 5520 5519 5518 5517 5516 5516 5515 5514 5514 5513 5514 5514 5514 5514 5514 5515 5515 5515 5516 5517 5517 5518 5518
5530 5531 5530 5529 5528 5527 5526 5526 5525 5524 5523 5522 5521 5520 5519 5517 5516 5515 5513 5513 5512 5511 5510 5509 5507 5506 5506 5506 5505 5504 5504 5504 5504 5504 5503 5504 5504 5504 5504 5505 5505 5505 5506 5506
5521 5522 5522 5521 5519 5519 5518 5517 5516 5515 5514 5513 5512 5511 5510 5508 5507 5506 5505 5504 5503 5502 5501 5500 5498 5497 5496 5496 5495 5495 5494 5494 5494 5494 5494 5494 5493 5494 5494 5494 5494 5494 5494 5494
5512 5513 5512 5512 5511 5510 5509 5508 5507 5506 5505 5504 5503 5502 5501 5499 5498 5497 5496 5495 5495 5494 5492 5491 5490 5488 5487 5486 5486 5485 5484 5484 5484 5484 5484 5484 5483 5483 5483 5483 5482 5483 5482 5482
5504 5504 5503 5503 5502 5501 5500 5499 5498 5498 5497 5495 5494 5493 5492 5491 5489 5488 5487 5487 5486 5485 5484 5482 5481 5479 5478 5477 5476 5476 5475 5475 5475 5475 5474 5474 5474 5474 5473 5473 5472 5472 5471 5471
5495 5494 5493 5493 5492 5492 5491 5490 5490 5489 5488 5487 5486 5484 5483 5482 5480 5479 5479 5478 5477 5476 5475 5474 5472 5471 5470 5469 5468 5467 5467 5467 5467 5466 5466 5465 5465 5465 5464 5464 5463 5462 5461 5461
5486 5485 5485 5485 5484 5483 5482 5482 5481 5480 5479 5478 5476 5475 5474 5472 5471 5470 5470 5469 5468 5467 5466 5465 5464 5463 5462 5461 5460 5459 5459 5459 5458 5458 5457 5457 5456 5456 5455 5454 5454 5453 5453 5452
5478 5477 5476 5476 5475 5475 5474 5473 5472 5471 5470 5469 5467 5466 5464 5463 5462 5461 5460 5460 5459 5458 5457 5456 5455 5455 5454 5453 5453 5452 5452 5451 5451 5450 5449 5449 5448 5447 5447 5446 5445 5445 5444 5443
5471 5470 5468 5468 5467 5466 5465 5464 5463 5462 5461 5460 5459 5457 5455 5454 5453 5452 5451 5450 5450 5449 5448 5448 5447 5447 5446 5446 5445 5444 5444 5443 5443 5442 5442 5441 5440 5440 5438 5438 5437 5436 5436 5435
5462 5462 5461 5460 5459 5457 5456 5455 5454 5453 5452 5451 5450 5448 5447 5445 5444 5443 5442 5441 5441 5440 5440 5439 5439 5439 5438 5438 5437 5437 5436 5435 5435 5434 5433 5433 5432 5431 5430 5429 5428 5428 5428 5427
5454 5453 5452 5452 5450 5449 5448 5446 5445 5444 5443 5442 5440 5439 5437 5436 5435 5435 5434 5433 5432 5432 5431 5431 5431 5430 5430 5429 5429 5429 5428 5427 5427 5426 5425 5425 5424 5423 5422 5421 5420 5420 5420 5419
5446 5445 5444 5443 5441 5440 5439 5437 5436 5435 5434 5433 5431 5430 5429 5428 5427 5426 5425 5424 5424 5423 5423 5423 5422 5422 5422 5421 5421 5420 5420 5419 5419 5418 5417 5416 5415 5414 5414 5413 5413 5412 5412 5412
5437 5436 5435 5434 5433 5431 5430 5429 5428 5427 5426 5424 5423 5422 5421 5419 5418 5417 5417 5416 5415 5415 5415 5414 5414 5414 5414 5413 5413 5412 5411 5411 5410 5409 5409 5408 5407 5406 5406 5405 5405 5404 5404 5404
5429 5428 5427 5426 5425 5424 5422 5421 5420 5419 5418 5417 5415 5414 5413 5411 5410 5409 5408 5408 5407 5406 5406 5406 5405 5405 5405 5405 5404 5404 5403 5402 5402 5401 5400 5400 5399 5398 5398 5397 5397 5396 5396 5396
5421 5420 5420 5418 5417 5416 5415 5413 5412 5411 5410 5409 5408 5406 5405 5404 5403 5402 5400 5400 5399 5398 5398 5397 5397 5397 5396 5396 5396 5395 5395 5394 5394 5393 5392 5391 5391 5390 5389 5389 5388 5388 5388 5387
5414 5413 5412 5411 5410 5409 5408 5407 5405 5404 5403 5402 5400 5399 5397 5396 5395 5394 5393 5393 5391 5391 5390 5390 5389 5389 5389 5388 5388 5387 5387 5386 5386 5385 5384 5383 5382 5381 5381 5380 5380 5380 5379 5379
5406 5406 5405 5404 5403 5402 5401 5400 5398 5397 5396 5395 5393 5392 5390 5389 5388 5387 5386 5385 5384 5383 5383 5382 5382 5381 5381 5380 5380 5379 5379 5378 5377 5376 5375 5375 5374 5373 5372 5372 5372 5371 5371 5371
5399 5399 5398 5397 5396 5395 5394 5393 5392 5391 5389 5388 5386 5385 5384 5382 5381 5380 5379 5378 5377 5376 5375 5375 5374 5374 5373 5373 5372 5372 5371 5370 5369 5369 5368 5367 5366 5366 5365 5364 5364 5364 5364 5363
5393 5392 5391 5390 5389 5388 5387 5386 5385 5384 5382 5381 5380 5378 5377 5375 5374 5373 5371 5370 5369 5369 5368 5367 5366 5366 5365 5365 5364 5364 5363 5363 5362 5361 5361 5360 5359 5358 5358 5357 5357 5356 5356 5356
5386 5385 5384 5384 5383 5382 5381 5380 5378 5377 5376 5374 5373 5372 5370 5368 5367 5365 5364 5363 5362 5361 5360 5359 5359 5358 5357 5357 5357 5356 5356 5355 5355 5354 5354 5353 5352 5352 5351 5351 5350 5350 5349 5349